sat.trackr.live / text

‹ back to catalog

STARLINK-5031

NORAD 53889 · 2022-119D

PAYLOAD ACTIVE UNKNOWN

§ Identity

Operator
Country
US
Launch date
2022-09-24
Launch site
AFETR
Launch vehicle
Mass (kg)
RCS (m²)

Purposes: comms

External: N2YO · Heavens-Above · Gunter

§ Orbital elements

Epoch: 2026-09-20T10:54:19.223424Z

Period
94.01 min
Inclination
53.1604°
Eccentricity
0.0001257
Mean motion
15.31699798 rev/d
Perigee alt
469.9 km
Apogee alt
471.6 km
Semi-major
6,848.9 km
B*
3.1644e-5
RAAN
163.0878°
Arg perigee
85.4080°
Mean anomaly
274.7065°
Rev number
22,117

§ Raw data

STARLINK-50311 53889U 22119D   26263.45438916  .00000617  00000+0  31644-4 0  99922 53889  53.1604 163.0878 0001257  85.4080 274.7065 15.31699798221179

JSON: /api/v1/satellites/53889 · /tle

For live sub-satellite position, see the globe view (requires WebGL).

§ Visibility from observer

Set your observer location to see the next 7 days of passes ≥ 10°. The values pass through the URL so the page stays shareable.

No JS? Fill the form by hand. The geolocation button needs JavaScript.